Retour au catalogue

STARLINK-37637

ActifCommunicationsSSO
NORAD 69026·PAYLOAD·🇺🇸 United States

Lancé May 6, 2026 depuis Vandenberg Space Force Base

Loading…

Prochains Passages (prochaines 24 heures)

TLE

FraisSource: CelesTrak SupGP

Époque: Sep 15, 2026, 03:31 UTC

1 69026C 26101B   26258.14701389 -.00025298  00000+0 -78577-3 0  2581
2 69026  97.2844 111.7244 0001915 106.7292 112.2976 15.33432366    17

Suivez STARLINK-37637 en temps réel avec AllMySat

Download on the App Store